Regional Weather Roundup
Issued by NWS

Home | Current Version | Previous Version | Text Only | Print | Product List | Glossary On
Versions: 1 2 3 4 5 6 7 8 9 10 11 12 13 14 15 16 17 18 19 20 21 22 23 24 25 26 27 28 29 30 31 32 33 34 35 36 37 38 39 40 41 42 43 44 45 46 47 48 49 50
000
ASHW40 PHFO 271143
RWRHI

WEATHER ROUNDUP FOR HAWAII
NATIONAL WEATHER SERVICE HONOLULU HI
100 AM HST TUE JUN 27 2017

THIS IS AN AUTOMATED REPORT THAT HAS NOT BEEN QUALITY CONTROLLED.

NOTE..."FAIR" INDICATES FEW OR NO CLOUDS BELOW 12,000 FEET WITH NO
SIGNIFICANT WEATHER AND/OR OBSTRUCTIONS TO VISIBILITY.

* - THESE SITES REPORT LIMITED FIELDS

HIZ001>004-271200-
KAUAI-NIIHAU-

CITY           SKY/WX    TMP DP  RH WIND       PRES   REMARKS
LIHUE APT      PTCLDY    78  71  79 E14       30.11F
PORT ALLEN*    NOT AVBL
POIPU*         NOT AVBL
PRINCEVILLE*   NOT AVBL
KOKOLE POINT*  NOT AVBL
MOLOAA DAIRY*    N/A     75  70  83 E7G15       N/A
WAIMEA HTS*      N/A     73  63  68 N1          N/A
PUU OPAE*      NOT AVBL
PUU LUA*       NOT AVBL
MAKAHA RIDGE*    N/A     68  63  83 CALM        N/A
$$

HIZ005>011-271200-
OAHU-

CITY           SKY/WX    TMP DP  RH WIND       PRES   REMARKS
HONOLULU       PTCLDY    78  67  68 E12       30.08F
KALAELOA       PTCLDY    77  67  71 E3        30.09F
KANEOHE MCB    PTCLDY    79  72  79 E10       30.06
WHEELER FIELD  CLOUDY    75  68  78 SE3       30.07F
BELLOWS*       NOT AVBL
KAHUKU*        NOT AVBL
WHEELER*       NOT AVBL
WAIANAE HARBOR NOT AVBL
DILLINGHAM*      N/A     72  66  83 CALM        N/A
KAHUKU TRN*      N/A     88  82  84 W9G18       N/A  HX 108
KAWAILOA*        N/A     73  68  83 E9G16       N/A
KII*             N/A     79  72  78 E18G24      N/A
MAKUA RANGE*     N/A     75  68  78 NW3         N/A
OAHU FOREST NW   N/A     70  66  88 SE3G18      N/A
SCHOFIELD BRK*   N/A     73  68  83 MISG        N/A
SCHOFIELD S*   NOT AVBL
WAIANAE VLY*     N/A     73  66  78 S1G12       N/A
KUAOKALA*        N/A     73  68  83 N5G13       N/A
HONOULIUULI*   NOT AVBL
MOKUOLOE IS*   NOT AVBL
PALEHUA*         N/A     66  64  94 NE12G20     N/A
WAIAWA PHB*    NOT AVBL
$$

HIZ012>013-271200-
MOLOKAI-

CITY           SKY/WX    TMP DP  RH WIND       PRES   REMARKS
MOLOKAI AIRPT  CLEAR     77  69  76 NE12G24   30.08F
KALAUPAPA      NOT AVBL
MAKAPULAPAI*     N/A     77  68  73 E21G30      N/A
MOLOKAI 1*       N/A     79  73  83 E1G7        N/A
PUU ALII*        N/A     61  60  98 NE3G12      N/A
$$

HIZ016-271200-
KAHOOLAWE-

CITY           SKY/WX    TMP DP  RH WIND       PRES   REMARKS
KAHOOLAWE*     NOT AVBL
HAKIOAWA*        N/A     73  69  87 MISG      30.47F
HONOKANAIA*      N/A     79  69  70 NE12G24   30.01S
KANELOA*         N/A     73  66  78 E18G25    30.14S
KEALIALALO*    NOT AVBL
LUA MAKIKA*    NOT AVBL
$$

HIZ014>015-271200-
LANAI-

CITY           SKY/WX    TMP DP  RH WIND       PRES   REMARKS
LANAI CITY     MOCLDY    70  66  88 CALM      30.12S
LANAI 1*         N/A     72  66  83 E12G24      N/A
$$

HIZ017>028-271200-
MAUI-

CITY           SKY/WX    TMP DP  RH WIND       PRES   REMARKS
KAHULUI        CLEAR     77  69  76 NE10      30.06F
KAPALUA-W MAUI NOT AVBL
HANA AIRPORT   MOCLDY    77  70  78 NE8       30.11F
HANA*            N/A     77 N/A N/A E7          N/A
HALEAKALA SUMM   N/A     45  19  36 E23G46      N/A
MAALAEA BAY*   NOT AVBL
HALEAKALA*     NOT AVBL
KAUPO GAP*     NOT AVBL
KULA 1*          N/A    N/A N/A N/A E6G17       N/A
$$

HIZ023>026-271200-
BIG ISLAND OF HAWAII COAST AND LOWER SLOPES-

CITY           SKY/WX    TMP DP  RH WIND       PRES   REMARKS
KAILUA KONA    MOCLDY    82  68  62 SE7       30.02F
HILO           CLOUDY    76  64  66 SW5       30.08F
HONOKAA*         N/A     72 N/A N/A VRB1        N/A
KAWAIHAE MWT*    N/A     79 N/A N/A NE6         N/A
KAWAIHAE*        N/A     79 N/A N/A SE12      30.02F
SOUTH POINT*     N/A     72 N/A N/A N14G20      N/A
UPOLU AIRPORT* NOT AVBL
KAMUELA*         N/A     64  57  77 NE16      30.14F
HAKALAU*         N/A    N/A N/A N/A SW6G12      N/A
KALOKO-HONOKO*   N/A     79  68  69 SE5       30.01F
PALI 2*          N/A     64  57  77 S14G25      N/A
KEALAKOMO*       N/A     81  63  54 N15G26      N/A
KAUPULEHU*       N/A     70  64  83 SE3G9       N/A
KAPAPALA*        N/A     60  60 100 N3G9        N/A
LOWER KAHUKU*    N/A     61  57  88 N3G12       N/A
PUHE CS*         N/A     79  57  47 NE3G12      N/A
PUHO CS*         N/A     76  67  72 E2          N/A
PTA KEAMUKU*   NOT AVBL
WAIKOLOA*        N/A     72  57  60 E10G18      N/A
$$

HIZ027>028-271200-
BIG ISLAND OF HAWAII INTERIOR AND SUMMMITS-

CITY           SKY/WX    TMP DP  RH WIND       PRES   REMARKS
BRADSHAW FIELD PTCLDY    66  22  19 SE14G20   30.36F
MK VISITOR CEN   N/A     48  21  34 E12         N/A
MAUNA KEA*       N/A     37  -8  14 NE1         N/A
MAUNA LOA*       N/A     48 -20   5 MISG        N/A
MAUNA LOA 1*   NOT AVBL
PTA KIPUKA*      N/A     73  52  46 SE9G24      N/A
PTA RANGE 17*    N/A    N/A N/A N/A SE16G25     N/A
PTA WEST*        N/A     57  55  94 SE6         N/A
NENE CABIN*      N/A    N/A N/A N/A NE9G16      N/A
AHUMOA*          N/A     53  33  47 NE3G9       N/A
PTA PORTABLE*  NOT AVBL
PUU MALI*        N/A     63 N/A N/A E14G24      N/A
$$

HIC003-271200-
NORTHWEST ISLANDS-

CITY           SKY/WX    TMP DP  RH WIND       PRES   REMARKS
MIDWAY ISLAND  PTCLDY    73  66  78 E10       30.18F
MIDWAY NOS*      N/A     75 N/A N/A MISG      30.16F
FRENCH FRIGATE NOT AVBL
$$

PHZ110>124-180-271200-
BUOY REPORTS

STATION/POSITION TIME  TEMP    WIND        PRES    WAVE   SWELL
                       AIR SEA DIR/SP/G            HT/PER HT/DIR
                 (UTC) (F)     (DEG/KT/KT) (MB)    (FT/S) (FT/D)
BUOY 51001       1120   79 81  120/ 16/ 19 1018.8
BUOY 51101       1050   80 80  120/ 16/ 19 1019.3F   5/11   5/ 70
BUOY 51100       NOT AVBL
BUOY 51002       1120   79 80   70/ 17/ 21 1015.6
BUOY 51003       1050   80 81   50/ 12/ 16 1017.3F   5/ 7   5/110
BUOY 51004       1050      79   80/ 16/ 19 1016.7F   7/11   5/ 50
BARBERS PT BUOY  NOT AVBL
WAIMEA BAY BUOY  1102      78                N/A     3/11   2/ 20
KAILUA BAY BUOY  1104      80                N/A     7/11   3/ 50
LANAI BUOY       NOT AVBL
BARBERS PT 2     NOT AVBL
PAUWELA MAUI     1109      79                N/A     6/11   3/ 60
HILO             1127      79                N/A     6/12   3/ 50
KANEOHE BAY BUOY 1125      79                N/A     6/12   3/ 70
HANALEI KAUAI    1122      80                N/A     6/11   3/ 50
KAHULUI HARBOR   1112   78 80   40/ 14/ 18 1018.0
HONOLULU HARBOR  1112   79 80   70/  3/  5 1019.1
KILO NALU        NOT AVBL
HILO HARBOR      1112   77 79  170/  3/  4 1018.2
MOKUOLOE         1036   79 83   90/ 10/ 13 1019.0F
NAWILIWILI       1112   78 83   60/ 11/ 13 1018.9
WHOTS BUOY       NOT AVBL
BUOY 51028       NOT AVBL
$$

......................KEY........................................
  SKY/WX - SKY CONDITIONS/PRESENT WEATHER
  TMP    - TEMPERATURE IN FAHRENHEIT
  DWPT   - DEWPOINT IN FAHRENHEIT
  RH     - RELATIVE HUMIDITY IN PERCENT
  WIND   - DIRECTION AND SPEED /MPH FOR ISLANDS...KTS FOR BUOYS/
  PRES   - MEAN SEA LEVEL PRESSURE IN INCHES OF HG
  VSB    - VISIBILITY IN MILES
  HX     - HEAT INDEX
  WCI    - WIND CHILL INDEX
  VRB    - VARIABLE WIND DIRECTION
  N/A    - NOT AVAILABLE




USA.gov is the U.S. government's official web portal to all federal, state and local government web resources and services.